Temperature
16 16 16 16 16 16 16 15 15 15 15 15 15 15 15 15 15 15 15 15 15 15 15 15 15 15 15 15 15 15 15 15 15 15 15 15 15 15 15 15 15 15 15
16 16 16 16 15 15 15 15 15 15 15 15 15 15 15 15 15 15 15 15 15 15 15 15 15 15 15 15 15 15 15 15 15 15 15 15 15 15 15 15 15 15 15
16 16 15 15 15 15 15 15 15 15 15 15 15 15 15 15 15 15 15 15 15 14 14 14 14 14 14 14 14 14 14 14 14 14 14 14 14 14 15 15 14 14 14
16 15 15 15 15 15 15 15 15 15 15 15 15 15 14 14 15 15 15 14 14 14 14 14 14 14 14 14 14 14 14 14 14 14 14 14 14 14 14 14 14 14 14
16 15 15 15 15 15 15 15 15 15 15 15 15 14 14 14 14 14 14 14 14 14 14 14 14 14 14 14 14 14 14 14 14 14 14 14 14 14 14 14 14 14 14
15 15 15 15 15 15 15 14 14 14 14 14 14 14 14 14 14 14 14 14 14 14 14 14 14 14 13 13 13 13 13 13 13 13 13 13 13 13 13 13 13 13 13
15 15 15 15 15 15 14 14 14 14 14 14 14 14 14 14 14 14 14 14 14 14 14 14 14 14 13 13 13 13 13 13 13 13 13 13 13 13 13 13 13 13 13
15 15 15 15 15 15 14 14 14 14 14 14 14 14 14 14 14 14 14 14 14 14 14 13 13 13 13 13 13 13 13 13 13 13 13 13 13 13 13 13 13 12 12
15 15 15 15 15 14 14 14 14 14 14 14 14 14 14 13 13 13 13 13 13 13 13 13 13 13 13 13 13 13 13 13 13 13 13 13 13 12 12 12 12 12 12
14 14 14 14 14 14 14 14 14 14 14 14 14 13 14 13 13 13 13 13 13 13 13 13 13 13 13 13 13 13 12 12 12 12 12 12 12 12 12 12 12 12 12
14 14 14 14 14 14 14 14 14 14 14 13 13 13 13 13 13 13 13 13 13 13 13 13 13 13 13 13 13 12 12 12 12 12 12 12 12 12 12 12 12 12 11
14 14 14 14 14 14 14 14 14 14 13 13 13 13 13 13 13 13 13 13 13 13 13 13 13 13 13 13 13 12 12 12 12 12 12 12 12 11 11 11 11 11 11
14 14 14 14 14 14 14 14 14 13 13 13 13 13 13 13 13 13 13 13 12 13 12 13 13 12 12 12 12 12 12 12 12 12 12 12 11 11 11 11 11 11 11
14 14 14 14 13 13 13 13 13 13 13 13 13 13 13 13 13 13 13 13 12 12 12 12 12 12 12 12 12 12 12 12 12 12 12 11 11 11 11 11 11 11 10
14 14 13 13 13 13 13 13 13 13 13 13 13 13 13 13 12 12 12 12 12 12 12 12 12 12 12 12 12 12 12 12 11 11 11 11 11 11 11 11 11 11 10
13 13 13 13 13 13 13 13 13 13 13 13 12 12 13 12 12 12 12 12 12 12 12 12 12 12 12 12 12 12 12 11 11 11 11 11 11 11 11 11 11 11 10
13 13 13 13 13 13 13 13 13 13 12 12 12 12 12 12 12 12 12 12 12 12 12 12 12 12 12 12 12 11 11 11 11 11 11 11 11 10 10 10 10 10 10
13 13 13 13 13 13 12 12 12 12 12 12 12 12 12 12 12 12 12 12 12 12 12 12 12 12 11 11 11 11 11 11 11 11 11 10 10 10 10 10 10 10 10
13 13 13 12 12 12 12 12 12 12 12 12 12 12 12 11 11 11 11 11 11 11 11 11 11 11 11 11 11 11 11 11 11 10 10 10 10 10 10 10 10 10 10
13 12 12 12 12 12 12 12 12 12 12 12 11 11 11 11 11 11 11 11 11 11 11 11 11 11 11 11 11 11 11 11 11 10 10 10 10 10 10 10 9 9 9
12 12 12 12 12 12 12 12 12 11 11 11 11 11 11 11 11 11 11 11 11 11 11 10 10 10 10 10 10 11 10 10 10 10 10 10 10 10 9 9 9 9 9
12 12 12 12 12 12 12 11 11 11 11 11 11 11 11 11 11 11 10 10 10 10 10 10 10 10 10 10 10 10 10 10 10 10 10 10 10 9 9 9 9 9 9
12 12 12 12 11 11 11 11 11 11 11 11 11 10 10 10 10 10 10 10 10 10 10 10 10 10 10 10 10 10 10 10 10 10 9 9 9 9 9 9 9 9 9
12 12 11 11 11 11 11 11 11 10 10 10 10 10 10 10 10 10 10 10 10 10 10 10 10 10 10 10 9 9 9 9 9 9 9 9 9 9 9 9 9 8 8
11 11 11 11 11 11 11 11 10 10 10 10 10 10 10 10 10 9 9 9 9 9 9 9 9 9 9 9 9 9 9 9 9 9 9 8 9 9 9 9 9 8 8
11 11 11 11 10 10 10 10 10 10 10 10 10 10 9 9 9 9 9 9 9 9 9 9 9 9 9 9 9 9 9 8 8 8 9 8 8 8 8 8 8 8 8
Wind_Speed
3 3 3 3 3 4 4 3 4 4 4 4 5 6 5 6 6 6 6 9 10 10 10 11 11 10 10 10 10 10 10 11 11 11 11 11 10 9 9 9 9 9 9
4 3 3 3 3 4 4 4 4 3 3 3 4 5 5 6 6 6 6 7 9 10 10 11 11 11 11 10 10 11 11 12 11 11 11 11 10 10 10 10 10 10 10
6 4 3 2 3 4 6 5 5 4 3 4 3 3 4 5 5 5 5 6 6 8 10 10 10 10 11 11 11 11 11 12 12 12 12 12 12 11 11 11 11 10 10
7 5 3 2 3 5 4 3 3 4 4 3 3 3 3 3 4 4 5 5 5 5 7 8 9 9 10 10 10 11 11 11 11 11 11 11 11 11 11 11 11 10 10
7 6 3 2 4 4 3 3 3 3 3 3 3 3 2 2 2 3 3 3 4 4 5 6 7 8 8 9 9 10 10 10 10 10 10 10 10 10 10 10 10 10 10
6 6 4 3 4 3 3 3 3 3 2 2 3 4 3 2 2 2 2 2 3 3 4 4 4 5 7 8 8 8 8 9 9 9 8 8 9 10 10 10 10 10 10
6 5 3 2 3 3 2 2 2 3 2 2 3 3 4 3 2 1 1 2 2 2 4 4 4 4 4 6 6 7 7 7 8 8 9 9 9 9 8 9 9 9 9
5 5 4 2 2 2 2 2 2 2 1 1 2 2 2 4 3 2 1 1 1 2 2 3 3 4 4 4 5 6 7 7 7 7 8 8 8 8 7 7 7 7 8
4 4 4 3 2 2 2 2 2 3 2 0 1 3 3 2 2 3 2 1 1 1 1 2 4 4 5 5 5 5 6 6 7 7 7 7 7 6 6 6 6 6 6
2 3 3 3 2 2 2 2 2 2 3 1 0 0 2 4 2 1 3 2 1 0 1 2 3 4 5 5 5 6 6 6 6 6 6 6 6 5 5 5 5 5 5
1 2 3 2 2 2 3 2 2 2 2 3 2 1 1 1 2 2 1 2 2 2 1 2 3 4 5 6 5 6 6 6 5 5 5 4 4 4 3 3 4 4 4
1 2 2 2 2 2 3 2 2 3 3 2 2 2 3 2 2 2 2 2 2 2 2 1 2 3 5 6 6 6 6 6 5 4 4 3 3 3 2 2 3 3 3
2 3 3 3 3 3 3 2 2 3 3 3 3 3 3 3 3 3 3 2 1 2 1 1 1 3 5 6 6 7 7 6 6 5 4 3 2 2 1 2 2 2 2
4 4 4 4 3 3 3 2 2 2 2 3 3 3 2 2 3 3 4 3 1 1 1 2 1 2 4 6 7 8 7 7 6 5 4 3 3 2 2 1 1 1 2
3 3 4 4 4 3 3 3 2 2 2 2 3 3 2 2 2 2 3 4 4 2 3 3 2 2 3 6 8 8 7 8 7 6 5 4 4 3 3 2 1 1 2
3 3 3 4 3 3 3 3 2 2 2 2 1 1 1 1 1 2 2 2 3 4 3 4 3 2 3 4 7 8 8 7 7 6 6 5 5 4 3 3 2 2 2
3 3 3 3 3 3 3 3 3 3 3 2 1 2 2 2 1 1 2 2 2 3 3 2 2 1 2 2 3 5 7 7 7 7 7 6 6 5 5 4 4 4 3
4 4 3 2 3 3 3 3 3 2 3 3 3 2 2 2 2 2 2 3 2 2 3 3 1 1 2 3 3 3 4 5 6 7 8 8 7 6 6 5 5 5 5
4 3 3 3 3 3 4 4 4 3 3 4 4 3 4 3 3 2 3 3 3 2 2 2 2 1 1 1 1 2 2 2 4 6 8 8 8 8 7 7 6 6 6
4 4 4 4 4 3 3 4 4 3 3 3 3 4 4 4 5 4 3 4 3 3 2 2 1 1 1 1 1 2 1 2 2 4 5 7 8 9 9 9 8 8 8
5 5 4 4 3 3 3 3 3 3 3 3 3 3 4 5 5 5 3 3 4 3 3 2 2 1 1 1 2 2 3 2 2 2 2 3 4 5 7 9 10 10 9
4 4 5 5 4 3 3 4 4 3 3 3 3 3 3 4 5 6 6 5 5 5 5 4 3 3 4 4 2 3 2 1 3 2 3 3 3 3 6 8 10 10 10
4 4 5 4 4 4 4 3 4 3 3 3 3 3 3 3 3 3 5 5 5 6 7 7 6 6 5 6 5 4 4 4 4 3 3 3 2 4 6 8 11 12 11
3 4 4 4 4 5 5 4 4 3 2 3 4 4 4 4 4 4 3 2 3 5 7 6 7 7 6 6 6 6 6 4 2 2 3 3 3 3 4 7 11 12 12
3 4 4 4 4 5 5 4 4 3 2 3 4 4 4 4 4 4 3 3 3 4 4 5 7 6 6 7 6 3 3 3 3 3 3 3 2 2 2 3 8 10 11
4 3 3 3 4 4 4 4 4 3 2 3 3 3 4 4 4 4 4 4 5 5 3 3 3 4 4 4 7 6 6 4 3 3 3 4 2 2 2 3 3 6 8
Wind_Direction
111 101 89 79 72 74 75 75 77 70 67 71 89 95 93 88 80 74 73 80 89 90 91 90 88 91 91 93 93 90 88 85 84 87 89 90 93 95 94 94 99 97 96
114 104 96 81 70 76 88 89 90 84 75 82 84 93 99 99 92 82 74 73 82 87 89 88 86 88 92 92 91 92 90 88 85 85 85 85 87 90 93 96 93 92 90
113 107 99 88 78 82 83 76 68 69 68 74 79 84 93 97 100 90 82 75 73 80 86 87 88 87 90 90 92 92 92 89 87 87 85 83 82 84 87 91 90 88 86
110 104 101 96 91 82 79 78 69 66 59 63 66 68 80 95 104 105 96 87 80 74 78 82 88 91 92 93 92 91 92 95 92 91 87 84 82 83 84 87 87 86 86
113 111 107 102 97 84 69 85 75 82 77 68 72 64 55 68 84 109 103 102 100 94 90 86 89 89 93 96 99 97 95 96 98 98 95 90 88 85 85 86 90 88 88
120 118 111 101 100 91 72 77 82 71 81 76 75 59 38 39 60 85 130 121 114 118 111 97 93 93 94 96 99 102 102 100 100 99 98 99 93 91 87 86 89 92 92
116 118 115 108 106 110 116 114 107 85 64 73 71 37 15 24 38 37 73 96 105 137 125 115 109 105 109 103 98 100 102 107 104 102 98 97 97 97 94 91 90 92 95
121 124 126 130 125 117 108 115 118 119 102 90 108 89 27 360 356 4 21 87 100 118 133 141 128 124 119 113 106 102 104 107 111 111 103 99 98 96 98 97 93 93 97
130 131 134 131 135 143 154 160 155 145 162 267 128 138 137 207 303 338 351 17 66 110 136 144 148 143 138 127 125 115 110 111 111 111 111 107 103 101 101 102 106 104 104
134 143 146 144 155 165 174 182 159 160 156 188 277 177 166 159 156 304 332 336 337 197 190 163 159 159 156 148 145 135 126 121 118 116 117 115 112 110 110 109 110 120 119
165 161 163 162 175 187 192 185 169 174 170 172 182 176 138 105 128 152 236 308 329 294 242 199 166 166 170 164 158 154 145 138 131 126 122 118 116 121 126 127 123 125 134
228 225 193 182 190 198 200 198 193 188 188 182 186 178 169 166 176 160 194 238 257 284 282 235 182 178 180 175 171 164 159 151 147 143 133 132 131 123 126 132 140 142 150
236 239 218 207 205 201 197 191 190 197 196 194 199 201 191 190 171 162 164 199 237 279 310 293 242 190 183 178 180 176 170 164 165 164 156 154 150 144 156 160 159 162 167
225 225 219 214 209 203 199 195 203 211 198 205 210 198 191 199 182 173 169 161 166 294 294 269 281 210 190 180 182 175 176 180 181 183 184 185 185 187 197 192 198 194 185
229 222 219 216 217 206 195 183 202 211 189 207 215 208 192 198 191 194 180 168 163 194 242 250 247 242 204 188 186 178 183 190 189 194 199 202 200 205 210 211 215 235 229
223 219 220 218 218 212 201 180 190 207 179 194 193 177 183 190 187 190 183 179 172 174 208 228 227 236 205 192 194 189 195 193 194 199 203 206 204 205 211 214 217 223 225
215 216 217 217 212 210 204 187 199 200 195 201 190 182 209 187 174 199 181 166 167 160 188 237 234 227 190 191 190 196 200 199 201 207 209 210 211 211 216 221 224 222 224
211 209 199 200 209 208 205 194 207 205 203 208 213 196 212 198 207 218 196 188 188 180 168 200 232 207 212 205 190 194 199 204 208 215 214 216 218 218 221 225 228 228 225
207 199 185 191 205 206 205 209 204 204 213 219 217 206 214 195 216 225 215 203 198 186 157 168 209 215 234 208 176 208 210 215 217 222 220 220 223 226 228 230 231 230 227
197 198 198 198 202 204 202 210 204 204 212 226 228 220 217 205 212 213 216 212 192 174 155 151 173 195 210 227 160 188 228 238 235 228 222 224 227 230 232 235 235 233 230
203 200 197 201 202 199 201 198 203 205 209 224 239 239 233 222 217 207 207 202 186 179 167 171 183 169 204 181 208 199 215 243 253 229 214 232 225 229 233 238 237 233 230
214 203 201 203 209 221 212 199 195 207 214 217 231 241 245 236 237 225 222 204 186 187 194 188 194 206 219 212 201 198 185 180 258 237 189 238 207 232 234 229 233 231 230
212 209 211 204 213 226 221 212 202 201 209 223 227 231 247 247 229 229 237 232 226 219 204 195 202 217 213 207 188 197 200 200 224 221 174 235 224 236 239 234 233 231 230
221 216 218 214 220 236 230 223 212 201 209 229 231 228 229 240 226 208 216 230 245 241 228 216 214 220 217 205 196 202 206 207 246 233 166 220 232 235 243 238 238 234 232
232 231 219 211 215 238 238 229 210 204 220 246 253 242 230 235 232 205 201 222 251 265 248 228 224 228 229 214 191 168 169 174 240 250 192 199 229 244 254 248 239 234 231
231 235 230 218 215 231 245 235 206 194 219 247 268 269 246 239 239 212 205 211 235 255 263 257 245 247 243 226 201 194 194 193 209 243 210 188 211 187 266 260 241 236 233
Height
1537 1537 1537 1537 1537 1536 1536 1536 1536 1535 1535 1535 1535 1534 1534 1534 1534 1533 1533 1533 1532 1532 1532 1531 1530 1530 1529 1529 1529 1529 1529 1528 1528 1528 1529 1529 1529 1529 1530 1530 1530 1531 1531
1537 1537 1537 1537 1537 1536 1536 1536 1536 1536 1535 1535 1535 1536 1536 1535 1535 1535 1534 1534 1534 1533 1533 1533 1532 1531 1531 1531 1530 1530 1530 1530 1530 1530 1530 1530 1530 1530 1531 1531 1531 1531 1532
1538 1537 1537 1537 1537 1537 1536 1536 1536 1536 1536 1536 1536 1536 1536 1536 1536 1536 1536 1535 1535 1535 1534 1534 1533 1533 1532 1532 1532 1532 1531 1531 1531 1531 1531 1531 1531 1532 1532 1532 1532 1533 1533
1538 1538 1537 1537 1537 1537 1536 1536 1536 1536 1536 1536 1536 1537 1537 1537 1537 1537 1537 1537 1536 1536 1536 1535 1535 1534 1533 1533 1533 1533 1532 1532 1532 1532 1532 1532 1533 1533 1533 1533 1533 1534 1534
1538 1538 1537 1537 1537 1537 1536 1536 1536 1536 1536 1536 1537 1537 1538 1538 1538 1538 1538 1538 1537 1537 1537 1536 1536 1536 1535 1534 1534 1534 1534 1533 1533 1533 1533 1534 1534 1534 1534 1534 1534 1534 1535
1538 1538 1538 1537 1537 1536 1536 1536 1536 1536 1537 1537 1537 1537 1538 1538 1538 1538 1538 1538 1538 1538 1537 1537 1537 1537 1536 1536 1535 1535 1534 1534 1534 1534 1534 1534 1534 1534 1535 1535 1535 1535 1535
1538 1538 1537 1537 1536 1536 1536 1536 1536 1537 1537 1537 1537 1537 1538 1538 1538 1539 1539 1538 1538 1538 1538 1538 1538 1537 1537 1537 1536 1536 1535 1535 1535 1535 1535 1535 1535 1535 1535 1536 1536 1536 1536
1538 1537 1537 1536 1536 1536 1536 1536 1536 1536 1536 1537 1537 1537 1538 1539 1538 1538 1538 1538 1538 1538 1538 1538 1538 1538 1537 1537 1537 1536 1536 1536 1536 1536 1536 1536 1536 1536 1536 1536 1536 1536 1537
1537 1536 1536 1536 1536 1536 1535 1535 1536 1535 1535 1536 1537 1537 1537 1537 1537 1538 1537 1538 1538 1538 1538 1538 1538 1538 1538 1537 1537 1537 1537 1536 1536 1536 1536 1536 1536 1536 1536 1536 1536 1536 1537
1536 1535 1535 1535 1535 1535 1534 1534 1534 1535 1535 1535 1536 1536 1537 1536 1536 1536 1537 1537 1537 1537 1537 1537 1537 1537 1537 1537 1537 1537 1537 1537 1537 1536 1536 1536 1536 1536 1536 1536 1536 1536 1536
1534 1534 1534 1534 1533 1533 1533 1533 1533 1533 1533 1534 1534 1535 1535 1535 1535 1535 1535 1535 1536 1536 1536 1536 1536 1537 1537 1537 1537 1537 1537 1537 1537 1536 1536 1536 1536 1536 1536 1535 1535 1535 1536
1533 1533 1532 1532 1532 1532 1531 1531 1532 1532 1532 1532 1532 1533 1533 1533 1533 1534 1533 1533 1533 1534 1534 1535 1535 1535 1536 1536 1536 1536 1536 1536 1536 1536 1536 1536 1535 1535 1535 1535 1535 1535 1535
1530 1530 1530 1530 1530 1530 1530 1530 1530 1530 1530 1530 1530 1531 1531 1531 1532 1532 1532 1531 1531 1532 1532 1533 1533 1534 1534 1535 1535 1535 1535 1535 1535 1535 1535 1535 1535 1534 1534 1534 1534 1534 1534
1528 1528 1528 1528 1528 1528 1528 1528 1528 1528 1528 1528 1528 1528 1529 1529 1530 1530 1530 1530 1529 1530 1530 1531 1531 1531 1532 1533 1533 1534 1534 1534 1534 1534 1534 1534 1533 1533 1533 1533 1533 1533 1533
1526 1526 1526 1526 1526 1525 1525 1525 1525 1525 1525 1525 1525 1526 1526 1526 1527 1527 1527 1528 1528 1527 1527 1528 1528 1529 1530 1530 1531 1532 1532 1532 1532 1532 1532 1532 1532 1532 1532 1531 1531 1531 1531
1524 1524 1523 1523 1523 1523 1523 1523 1523 1523 1523 1523 1523 1523 1523 1524 1524 1524 1524 1525 1525 1525 1525 1525 1526 1527 1527 1528 1529 1529 1530 1530 1530 1530 1530 1530 1530 1530 1530 1530 1530 1530 1530
1522 1521 1521 1520 1520 1520 1520 1520 1520 1520 1520 1520 1520 1521 1521 1521 1521 1521 1522 1522 1522 1522 1522 1522 1523 1524 1524 1525 1526 1526 1527 1528 1528 1528 1528 1528 1528 1528 1527 1527 1527 1527 1528
1519 1519 1518 1518 1517 1517 1517 1517 1517 1517 1517 1518 1518 1518 1518 1518 1518 1518 1518 1519 1519 1519 1520 1519 1520 1520 1521 1522 1523 1524 1524 1525 1525 1525 1525 1525 1525 1525 1525 1525 1525 1525 1525
1516 1516 1516 1515 1515 1515 1514 1514 1514 1514 1514 1514 1515 1515 1515 1515 1515 1515 1515 1516 1516 1516 1517 1517 1517 1517 1518 1519 1519 1520 1521 1521 1522 1522 1522 1522 1522 1522 1522 1522 1522 1522 1522
1513 1513 1513 1512 1512 1512 1511 1511 1511 1511 1511 1512 1512 1512 1512 1512 1512 1512 1512 1512 1513 1513 1513 1514 1514 1514 1515 1515 1516 1516 1517 1517 1518 1518 1518 1519 1519 1519 1519 1519 1519 1519 1519
1510 1510 1510 1509 1509 1509 1509 1509 1508 1508 1508 1508 1508 1509 1509 1509 1509 1509 1509 1509 1509 1510 1510 1510 1511 1511 1511 1511 1512 1513 1513 1514 1514 1515 1515 1515 1515 1515 1515 1516 1516 1516 1516
1506 1506 1506 1506 1506 1506 1506 1506 1505 1505 1505 1505 1505 1505 1505 1505 1505 1505 1506 1506 1506 1506 1506 1507 1507 1507 1507 1508 1509 1510 1510 1510 1510 1511 1511 1511 1512 1511 1512 1512 1512 1512 1512
1502 1502 1502 1502 1502 1502 1503 1503 1502 1502 1502 1502 1502 1502 1502 1502 1502 1502 1502 1502 1502 1502 1503 1503 1503 1503 1504 1505 1506 1506 1506 1507 1507 1508 1508 1507 1508 1507 1508 1508 1508 1508 1508
1498 1498 1498 1498 1498 1498 1499 1499 1499 1499 1498 1498 1498 1498 1498 1498 1499 1499 1498 1498 1498 1498 1499 1499 1499 1500 1501 1502 1502 1503 1503 1503 1504 1504 1504 1503 1503 1503 1504 1504 1504 1504 1504
1493 1493 1494 1494 1494 1494 1495 1495 1495 1495 1495 1494 1494 1494 1494 1494 1495 1495 1495 1494 1494 1494 1495 1495 1496 1496 1497 1498 1498 1499 1498 1498 1498 1498 1499 1499 1498 1498 1499 1499 1499 1500 1500
1489 1489 1489 1490 1490 1490 1490 1491 1491 1491 1491 1490 1490 1490 1490 1490 1491 1491 1490 1490 1490 1490 1490 1491 1491 1492 1492 1493 1493 1494 1494 1494 1493 1494 1494 1495 1494 1495 1494 1494 1495 1495 1495